User: anonymous
Location: Vancouver
(49.2500°N, 123.1330°W)
Time: 22:30:11
(UTC-07:00)
Language:

JAS-1B - Orbit

View from above orbital plane
View from above orbital plane
View from above satellite
View from above satellite

Ground track
Ground track

The orbit data is extracted from the following two-line orbital elements,

1 20480U 90013C   14107.94297365  .00000024  00000-0  11892-3 0  7061
2 20480 099.0383 082.4181 0540946 130.2559 299.5887 12.83392408133404
Epoch (UTC): 17 April 2014 22:37:52
Eccentricity: 0.0540946
inclination: 99.0383°
perigee height: 911 km
apogee height: 1745 km
right ascension of ascending node: 82.4181°
argument of perigee: 130.2559°
revolutions per day: 12.83392408
mean anomaly at epoch: 299.5887°
orbit number at epoch: 13340

The dashed part of the orbit path shows where the satellite is in the earth's shadow,  

DLR